Wind_Speed
19 15 23 28 25 25 23 17 16 12 7 10 23 28 19 13 7 10 10 9 12 15 17 22 27 33 35 37 39 44 45 45 44 43 41 36 36 34 32 30 28 26 23 21
12 25 32 27 20 22 25 24 23 10 10 9 15 22 9 10 13 18 16 16 12 9 9 8 20 28 32 37 39 37 44 44 47 42 40 29 36 37 34 30 28 26 25 23
20 28 16 28 28 26 25 25 24 21 4 14 3 23 17 7 8 9 8 14 13 15 12 9 10 24 31 31 37 40 43 44 45 42 40 28 30 25 30 30 30 29 27 25
15 26 26 25 21 30 28 28 24 22 14 19 10 20 18 18 13 12 19 15 14 10 10 11 13 12 27 39 46 41 43 47 46 48 44 41 34 23 30 36 34 30 27 25
11 13 17 20 30 23 26 23 23 22 17 16 10 9 14 9 9 16 21 18 13 16 16 18 14 20 31 33 33 40 39 40 42 50 46 42 31 31 32 32 33 30 28 25
25 15 9 12 5 15 20 8 16 13 13 20 21 17 22 7 13 12 16 21 13 16 16 15 15 18 19 23 30 34 39 40 43 45 44 43 36 36 31 32 34 33 29 26
5 18 23 14 11 10 6 12 9 10 12 16 17 15 22 9 23 28 24 13 14 14 15 13 10 11 15 25 29 30 31 31 38 41 40 40 41 40 39 36 36 36 31 28
4 8 6 11 21 9 9 12 8 10 4 12 6 9 11 23 26 7 9 12 14 9 8 9 11 11 15 23 28 32 34 31 39 41 41 42 41 38 36 35 35 36 36 33
5 6 8 10 5 20 8 11 1 1 1 4 3 4 7 5 10 15 18 12 19 10 8 11 9 8 16 22 29 35 33 32 36 39 41 42 38 35 34 31 31 33 32 28
3 8 5 2 5 6 4 7 6 9 5 9 3 3 5 3 13 14 12 9 7 8 8 8 5 6 11 19 23 28 31 34 35 37 39 38 35 32 31 29 29 28 26 25
3 4 6 5 5 8 9 4 3 2 2 2 1 4 7 9 8 9 9 6 6 9 7 2 3 5 11 17 21 22 27 30 31 33 34 33 30 27 27 27 26 25 24 22
5 3 5 8 2 4 3 5 6 3 4 2 4 6 2 1 3 2 7 9 6 2 2 3 3 5 8 12 16 19 22 26 29 31 30 30 28 26 25 24 24 23 22 21
3 3 5 7 0 1 3 2 3 4 3 7 5 5 4 4 6 4 5 7 3 0 3 4 5 5 5 11 16 21 23 25 27 28 27 24 24 23 23 21 20 21 21 20
4 3 4 5 8 4 3 2 2 12 3 3 6 7 7 9 6 7 5 5 3 1 1 3 6 5 5 12 16 21 23 24 24 24 24 22 19 18 17 17 17 17 17 18
3 3 3 12 9 3 5 7 7 3 1 3 4 2 4 10 8 6 5 5 3 2 1 3 4 6 5 8 17 19 20 21 21 21 20 20 17 15 15 15 16 16 17 18
4 4 5 6 6 7 4 11 8 8 5 4 5 2 9 9 11 7 7 5 3 2 2 3 5 4 7 9 10 16 17 17 18 19 17 15 15 16 15 15 15 16 16 16
3 3 4 4 2 3 5 9 6 3 6 3 7 6 12 10 11 10 11 8 5 3 4 4 4 5 7 11 16 18 16 16 14 14 14 15 14 13 12 12 13 14 15 16
3 2 2 4 3 4 3 2 1 3 6 6 4 9 11 10 7 4 8 8 10 6 5 5 3 4 9 13 15 18 16 14 15 14 13 13 12 10 10 11 12 13 15 16
11 3 3 2 1 2 2 4 3 3 4 7 8 12 10 14 2 2 12 9 7 9 5 4 9 10 12 15 16 17 14 10 11 10 10 10 11 12 12 11 10 10 11 12
7 8 3 3 3 1 3 6 2 1 1 7 7 11 9 12 4 3 13 11 10 9 3 7 13 17 17 15 15 15 13 11 9 8 8 8 7 8 9 9 9 9 10 9
2 2 1 3 2 2 5 9 1 3 5 12 5 6 6 4 2 8 8 7 7 6 8 10 14 13 14 14 13 10 8 7 7 8 7 7 8 8 8 8 9 9 9 8
4 3 2 3 3 3 15 3 4 4 4 6 5 4 4 5 7 4 4 5 6 6 9 11 10 10 13 13 13 11 10 9 8 8 7 8 8 8 8 8 8 7 7 7
4 3 2 4 3 4 3 6 4 4 3 5 8 10 5 6 5 5 5 5 6 5 7 7 9 9 7 6 8 10 8 8 7 6 7 8 8 8 6 6 6 6 5 5
6 6 2 2 3 2 4 1 3 4 5 8 8 7 7 8 7 6 5 3 3 4 4 4 6 5 4 4 4 4 6 4 3 5 7 7 6 5 5 5 5 6 7 8
2 5 5 2 3 3 5 8 8 9 5 8 7 6 8 8 8 5 4 4 3 3 3 3 3 3 3 3 4 5 5 8 9 10 9 7 6 6 5 7 7 8 8 8
2 2 2 2 3 3 4 9 10 9 10 9 8 10 9 8 8 7 5 5 4 4 4 2 2 3 3 2 3 4 5 5 4 3 3 3 4 4 5 4 6 7 8 8
Wind_Direction
255 244 227 217 218 228 239 239 239 233 238 196 224 247 236 226 234 232 234 218 225 234 238 222 215 211 206 204 199 203 199 203 203 202 201 204 204 205 207 208 208 208 212 213
253 252 231 231 225 223 228 238 246 259 229 240 251 257 240 222 234 243 239 242 231 231 244 219 202 199 201 202 203 198 203 200 202 198 198 197 202 205 207 206 209 211 211 211
241 250 242 235 233 234 236 238 240 240 216 237 234 265 251 241 234 252 246 236 238 225 234 217 200 199 202 200 202 202 201 202 200 200 197 192 200 204 203 205 207 207 210 211
243 260 243 254 256 222 234 225 232 239 235 242 171 261 246 236 235 236 247 238 240 223 232 241 209 202 198 206 207 202 199 200 197 198 193 192 191 190 202 204 205 205 208 210
251 232 232 241 237 224 229 218 217 224 234 243 218 252 246 217 232 228 242 250 229 234 227 232 226 211 208 206 199 198 195 194 193 197 195 192 191 194 202 204 203 203 205 210
247 244 216 203 293 224 229 197 216 217 217 235 231 221 255 206 223 237 240 249 234 233 239 231 228 216 211 199 195 190 188 191 193 193 193 193 191 192 191 195 199 202 204 207
271 233 240 248 248 253 254 196 215 219 216 236 220 221 238 220 233 236 238 242 239 225 237 233 210 201 194 186 187 185 184 185 190 191 194 195 200 200 200 197 197 200 203 206
292 317 166 187 203 213 207 237 207 210 192 226 161 209 229 223 246 236 242 238 254 232 229 236 231 206 193 185 182 184 185 183 189 191 195 201 206 205 205 205 205 207 208 211
304 286 305 208 186 194 192 224 325 319 4 63 201 280 309 175 232 235 247 240 255 251 237 244 246 204 189 186 189 188 184 184 185 188 194 200 202 204 204 206 210 209 210 213
275 288 309 265 114 204 180 166 196 220 215 217 244 263 217 223 216 229 247 237 284 296 279 268 242 188 176 179 182 186 184 179 181 187 194 197 197 199 201 202 201 204 202 203
255 238 293 282 192 180 187 218 171 120 169 85 46 267 214 237 217 237 262 300 296 282 284 284 62 69 124 151 157 160 165 166 172 183 185 186 184 187 190 192 193 195 200 206
222 269 270 255 201 250 183 234 184 135 221 221 156 266 244 184 271 289 309 307 305 3 32 61 58 70 85 111 129 137 148 155 167 172 170 172 175 180 186 189 191 196 200 204
314 284 307 337 43 26 147 197 161 141 106 197 147 262 19 9 4 336 295 306 325 341 51 59 46 65 73 98 114 127 142 148 154 157 160 166 171 179 183 189 192 194 197 202
307 309 311 298 309 296 273 53 245 214 192 178 214 268 351 355 341 321 322 342 331 15 153 95 70 30 69 98 115 126 132 142 148 154 158 162 169 179 186 189 194 200 207 215
51 274 285 297 290 292 43 22 342 322 73 224 240 140 37 335 316 311 297 333 350 332 256 85 112 103 52 85 112 126 131 140 148 150 158 161 167 181 194 202 205 210 216 220
337 274 357 300 349 13 65 13 18 41 355 22 338 355 11 312 344 350 348 333 333 313 308 126 123 112 131 127 115 130 142 146 158 158 164 167 174 186 198 208 211 214 218 219
295 325 348 274 32 52 24 349 13 82 31 341 24 315 327 336 344 4 357 345 296 267 233 217 170 166 147 147 148 145 153 148 148 151 158 165 171 181 193 204 212 216 218 219
231 347 257 264 14 49 220 290 298 87 62 34 345 337 326 306 295 16 11 350 338 304 232 211 155 127 139 149 149 151 150 155 154 157 164 170 168 173 186 201 213 219 222 226
204 214 268 340 60 156 54 353 349 16 60 16 356 349 337 319 224 169 13 350 325 323 236 177 144 148 148 150 152 149 139 154 152 156 166 168 175 179 189 194 204 214 221 224
185 213 288 344 70 67 260 325 227 197 353 7 356 352 340 343 40 305 348 345 345 358 14 120 134 140 142 145 153 142 150 150 145 160 169 172 183 195 203 201 207 215 223 226
352 9 157 254 116 349 355 312 329 55 288 338 331 328 337 5 254 298 332 340 357 21 49 87 111 113 131 142 144 116 129 129 154 168 167 179 193 193 202 193 205 207 211 218
22 337 12 17 60 6 342 14 58 327 310 314 319 308 311 276 303 316 328 348 12 27 54 67 87 107 133 145 149 146 151 153 155 163 173 190 191 193 193 195 206 218 215 223
38 356 357 21 76 96 28 69 360 334 305 331 329 326 316 318 329 345 346 5 18 36 51 82 100 105 113 129 154 146 147 153 158 174 193 203 191 196 194 203 211 212 211 221
0 14 41 167 72 144 43 116 19 318 325 329 329 316 341 342 338 343 343 352 12 28 52 80 105 101 96 98 103 132 148 158 177 199 205 199 191 205 209 219 229 228 223 221
337 332 335 36 52 96 127 40 3 340 347 346 343 342 357 353 348 348 350 357 1 20 36 70 87 105 114 116 122 148 172 177 179 187 191 188 194 200 210 223 234 238 239 241
346 12 9 317 68 316 307 8 360 353 353 347 352 353 1 9 350 350 13 14 6 15 8 63 121 149 163 183 175 195 204 207 204 189 191 208 213 211 226 240 253 244 257 261
Height
727 725 705 700 701 698 700 705 708 703 697 699 693 681 687 689 692 692 692 696 697 693 689 692 695 700 705 709 714 716 723 728 736 742 749 756 757 761 766 770 773 776 782 786
727 716 697 690 695 697 696 699 699 699 700 700 692 681 688 688 683 681 682 682 687 688 687 687 689 693 697 700 706 710 715 721 727 733 741 748 753 758 762 767 770 774 777 780
726 694 694 696 691 695 693 700 698 696 698 695 697 684 687 688 684 680 678 675 676 677 680 682 684 684 688 693 698 703 706 712 720 728 735 743 751 756 760 763 766 769 773 777
715 695 700 704 698 683 687 684 692 695 701 699 697 684 674 673 679 678 668 669 670 675 673 672 675 677 678 679 683 691 698 703 710 716 724 730 735 743 748 752 759 766 770 773
696 686 684 691 682 675 670 674 686 689 698 700 693 693 667 672 674 669 661 659 663 662 662 661 664 664 665 672 678 683 691 698 704 708 714 721 730 735 742 750 757 762 766 770
684 675 673 668 673 667 669 678 682 690 690 681 681 688 651 674 664 658 655 650 651 653 654 654 653 659 663 669 674 679 684 692 697 704 709 714 721 728 737 745 752 757 762 766
672 670 661 666 681 684 681 670 672 671 668 658 658 675 656 649 644 641 643 648 646 645 646 646 650 653 657 661 666 674 681 688 693 699 706 712 717 724 730 737 744 751 758 761
669 672 667 657 666 674 669 666 651 652 659 662 664 669 650 641 640 652 650 648 643 643 642 643 642 645 649 655 660 667 674 681 686 693 701 708 715 722 728 733 738 745 751 756
679 669 641 650 645 652 663 665 658 668 738 710 686 659 644 645 647 643 640 645 635 637 641 640 640 640 643 648 653 658 666 673 680 686 694 701 710 717 724 730 736 740 747 754
684 678 646 643 643 648 649 645 658 660 645 648 673 681 658 661 646 641 640 642 643 641 642 639 639 639 641 644 650 657 661 665 674 682 690 698 706 714 721 728 733 738 743 750
687 682 655 643 650 654 649 649 659 653 654 658 658 659 660 640 645 650 650 646 653 650 645 645 644 643 644 647 650 655 660 664 672 680 687 697 705 713 720 724 730 735 740 746
681 675 675 647 647 650 643 647 645 664 684 685 684 669 672 678 673 672 662 656 654 654 654 650 651 649 650 653 654 656 662 666 673 680 689 697 704 712 720 724 728 733 737 743
684 675 665 641 643 642 645 654 651 665 673 674 673 665 678 682 668 665 665 661 659 658 657 656 656 656 656 658 659 660 665 670 676 683 690 700 705 712 718 724 728 730 734 740
678 675 664 661 655 651 644 643 645 644 660 680 661 650 668 668 675 669 669 663 662 663 665 660 661 664 662 662 664 666 669 674 681 686 692 699 706 712 719 723 726 730 733 737
692 697 673 661 671 663 658 668 668 648 644 637 674 666 675 676 668 666 676 665 666 665 665 661 664 667 670 670 668 672 675 679 685 689 695 699 704 711 718 722 725 728 731 734
699 689 683 673 670 665 669 677 670 673 685 693 689 652 679 682 666 663 657 662 670 669 667 665 667 669 669 674 676 676 680 683 687 690 696 699 703 710 715 720 723 726 729 731
691 688 691 686 682 671 680 688 686 684 688 688 683 684 680 678 676 674 671 667 666 665 670 672 670 672 672 675 677 679 684 686 690 693 696 700 703 708 712 717 720 723 726 729
691 698 700 692 685 689 693 697 695 689 692 694 692 691 687 686 684 682 681 679 673 668 668 669 670 673 676 678 680 683 687 690 691 695 699 702 703 706 710 715 719 721 725 728
687 689 682 677 712 690 690 696 694 695 690 698 698 693 690 681 679 680 684 682 678 672 667 669 671 676 678 680 683 684 686 693 695 698 701 702 705 707 711 714 717 719 722 724
682 686 679 698 688 703 701 694 696 698 693 702 700 697 699 683 677 682 687 684 678 674 672 671 674 677 680 685 688 689 691 692 694 699 703 703 705 708 711 713 716 719 721 720
684 686 687 688 692 706 703 699 693 697 714 702 705 703 700 697 698 694 693 687 684 680 678 678 677 680 684 686 688 690 692 695 698 702 702 705 708 709 712 711 715 716 718 718
693 693 692 687 695 702 703 693 696 712 707 708 706 706 703 704 698 696 694 691 687 685 683 683 684 685 687 688 690 693 697 699 700 702 704 707 708 711 710 711 713 715 715 717
701 705 699 699 704 713 716 718 720 718 717 712 708 704 701 698 696 693 693 691 690 688 688 688 689 690 692 693 693 695 698 699 701 703 705 709 710 711 708 710 712 713 713 714
707 709 702 702 713 715 720 721 722 720 718 715 711 707 702 699 696 695 694 693 693 692 692 692 693 693 694 694 695 696 697 698 701 705 709 710 707 708 710 712 712 712 713 713
720 716 718 706 714 717 720 722 723 719 717 715 712 709 706 703 700 698 696 695 695 695 695 695 695 696 697 697 697 699 701 703 706 709 711 710 710 710 710 713 710 713 714 714
726 728 725 719 727 728 721 724 725 722 720 717 714 710 709 707 704 701 700 699 698 697 697 697 697 697 697 698 698 701 702 703 703 702 702 704 706 707 708 707 710 712 713 713